Location: Newark
(34.1333°N, 7.9667°W)
Time: 00:14:54
(UTC+00:00)

ITAMSAT 1 - Pass Details

Date: 20 April 2024
Orbit: 781 x 796 km, 98.8° (Epoch: 28 May)

Event Time Altitude Azimuth Distance (km) Brightness Sun altitude
Exits shadow 21:38:30 35° 227° (SW) 1,263 8.7 -28.4°
Maximum altitude 21:39:46 41° 261° (W) 1,146 8.7 -28.6°
Drops below altitude 10° 21:44:41 10° 331° (NNW) 2,370 11.0 -29.4°
Sets 21:47:10 0° 338° (NNW) 3,303 11.8 -29.8°
